Wind_Speed
9 10 10 9 9 9 10 10 10 9 10 10 10 11 11 11 12 13 14 13 14 14 15 14 14 14 15 15 16 17 18 18 18 19 20 20 21 21
10 9 9 9 9 9 9 10 10 10 10 10 10 12 12 13 13 14 14 13 14 14 14 14 14 14 15 15 16 17 18 18 19 20 21 21 22 22
11 11 11 10 10 10 11 11 11 11 11 11 11 11 12 13 14 14 14 14 13 14 14 15 15 15 16 16 16 17 18 19 19 20 21 22 22 23
12 12 12 12 12 12 12 12 13 12 12 12 12 12 13 14 14 14 14 14 14 14 14 15 16 17 17 18 17 17 18 18 19 20 21 22 22 22
13 12 12 13 13 13 14 13 13 13 13 13 14 14 13 13 14 14 14 14 14 15 15 15 16 17 17 18 18 18 19 19 19 20 21 22 22 22
12 12 13 13 14 14 14 14 14 14 14 14 14 14 14 14 14 14 14 15 15 16 16 16 16 17 17 18 18 18 19 19 20 20 20 20 20 21
13 13 13 13 13 13 13 14 14 14 15 15 15 15 14 14 14 14 14 15 16 16 16 17 17 17 17 17 17 18 18 19 19 19 19 20 20 21
13 13 13 13 13 13 13 14 14 15 15 16 15 15 14 15 15 15 16 16 16 16 17 17 17 17 18 18 18 19 19 19 19 19 20 21 22 22
14 14 14 14 14 14 14 14 14 15 15 15 15 15 15 15 15 16 16 16 16 16 17 17 17 18 18 19 19 19 20 20 20 20 21 21 22 22
14 14 14 14 15 15 15 15 15 16 16 16 16 16 16 16 16 16 15 16 16 16 17 17 17 18 18 19 20 20 21 22 22 23 23 23 23 23
14 14 15 15 15 15 16 16 16 17 17 17 17 17 17 17 17 16 16 16 16 17 17 17 17 17 18 20 20 21 21 22 22 23 24 25 24 25
15 15 16 17 17 17 17 17 17 17 17 18 18 18 18 18 18 18 17 17 17 18 18 18 19 19 19 20 20 21 21 22 23 23 24 25 25 26
15 16 17 17 18 18 18 18 18 18 18 19 19 19 19 19 19 19 18 18 19 19 19 20 20 20 20 21 22 22 22 23 24 24 25 25 26 26
16 17 18 18 19 19 19 19 20 20 20 20 20 20 19 19 19 19 19 19 20 20 20 21 21 22 22 22 23 23 24 24 25 25 25 26 26 26
18 19 19 19 19 20 20 20 20 20 20 20 20 20 20 20 20 20 21 21 21 22 23 23 23 23 24 25 25 25 25 25 25 26 27 26 27 27
21 21 20 20 20 20 20 20 20 21 21 21 21 20 21 21 21 21 22 23 24 24 24 24 24 25 26 26 26 26 26 26 26 27 28 27 27 27
21 22 22 22 22 22 22 21 21 21 22 22 21 21 21 22 22 23 23 24 25 25 25 25 26 26 26 26 26 26 26 26 26 27 28 28 29 29
21 21 21 21 22 22 22 22 22 22 22 22 22 22 22 23 23 24 24 25 25 25 26 26 26 26 26 26 27 27 26 27 27 27 27 27 28 29
22 21 21 21 21 21 21 22 22 22 22 22 23 23 24 24 24 24 24 24 25 26 26 26 26 26 26 26 26 27 27 27 28 27 27 27 27 27
23 23 22 22 21 21 21 22 22 22 22 23 23 24 24 23 23 23 24 24 25 25 25 25 26 26 26 26 26 26 27 27 27 27 27 27 27 28
23 23 22 22 22 21 21 22 22 22 23 23 23 23 23 23 24 24 25 25 25 25 25 25 25 25 24 24 25 25 26 26 26 26 26 26 27 27
23 23 23 23 23 22 22 22 22 22 22 23 23 24 24 24 24 25 26 26 26 26 25 25 25 25 24 24 24 24 25 25 25 26 26 26 26 27
24 24 24 24 23 23 23 23 23 23 23 23 24 25 24 24 25 26 26 26 26 26 25 25 24 25 25 25 25 24 24 24 25 26 26 26 26 27
Wind_Direction
272 275 279 283 284 280 277 274 275 277 278 277 272 273 273 270 272 275 278 277 276 278 278 276 274 272 270 268 265 262 262 265 267 268 269 270 271 270
276 281 283 287 286 282 278 276 277 279 277 277 277 277 273 271 273 277 276 273 272 274 275 273 270 270 270 270 269 267 265 266 267 268 269 270 271 271
276 277 278 281 283 280 277 276 278 276 274 274 277 275 275 274 273 276 275 271 270 271 272 270 268 267 269 271 272 272 269 268 269 271 271 271 272 273
278 278 276 277 279 277 277 278 278 276 277 276 278 278 278 278 275 274 274 272 271 272 273 271 270 270 271 272 272 273 272 270 271 273 274 273 274 273
275 277 274 275 276 277 276 277 276 276 277 278 279 278 279 280 276 277 276 277 274 275 275 273 272 273 274 274 273 274 273 273 274 275 276 274 272 272
270 277 276 276 276 277 274 273 274 275 276 277 279 279 280 281 280 277 278 279 279 277 277 277 278 277 278 277 275 274 274 276 275 274 275 277 275 274
272 276 277 278 278 277 275 273 273 275 276 278 280 280 280 282 283 281 280 280 281 280 280 280 279 279 279 278 278 277 276 277 277 277 276 277 277 276
271 273 276 277 276 276 274 272 274 277 278 279 280 282 282 283 284 284 282 280 282 282 282 282 280 281 279 278 279 279 280 280 279 278 278 277 277 277
274 276 278 280 276 274 274 275 277 278 279 280 280 281 282 284 285 286 284 283 283 284 283 283 283 282 280 278 278 279 280 279 279 279 279 279 279 278
278 281 279 277 277 278 277 277 277 279 281 282 281 282 284 285 286 285 284 285 284 285 284 284 283 283 281 279 278 278 279 280 279 279 280 280 279 278
278 279 279 277 277 278 278 278 278 280 280 281 280 281 285 286 286 286 285 284 285 286 284 285 284 284 284 282 280 279 280 281 281 280 281 281 280 278
277 278 278 277 277 276 277 279 280 280 281 282 281 282 284 285 285 284 283 283 285 285 285 283 284 284 285 285 283 281 281 282 283 282 281 281 281 279
277 277 278 278 277 276 276 278 280 281 281 282 282 283 284 284 285 284 283 282 283 284 284 283 284 283 283 284 284 284 283 282 282 281 281 282 281 282
275 277 277 277 275 276 278 280 280 280 282 283 283 283 283 283 283 283 283 283 284 285 285 285 284 282 282 282 283 283 282 282 284 284 282 282 283 283
277 278 278 277 278 278 280 281 282 280 280 281 282 282 283 282 282 283 283 283 284 286 286 286 285 283 282 282 281 282 283 283 284 283 283 283 284 284
281 282 280 278 277 278 280 281 282 282 281 281 281 281 283 284 283 283 285 285 285 285 285 286 285 284 283 282 282 282 282 283 283 283 282 282 283 284
280 279 279 278 278 278 279 280 282 283 281 280 279 281 284 285 285 285 286 287 287 287 285 285 286 285 285 284 284 284 283 284 283 284 284 283 283 282
280 280 280 278 278 279 279 279 280 281 280 279 280 281 283 283 284 285 287 287 287 287 286 285 284 284 284 284 285 285 284 284 284 285 286 285 283 283
280 281 282 282 283 282 281 280 280 280 280 280 280 280 280 281 283 284 286 287 287 286 286 285 284 283 283 284 284 285 286 286 286 286 286 286 284 283
279 279 281 282 282 282 282 281 281 280 278 278 279 280 281 281 282 283 285 286 288 287 287 286 286 285 286 286 285 285 286 287 287 286 287 287 287 286
279 278 277 278 279 280 282 281 280 279 279 280 281 280 280 280 281 283 285 286 286 286 287 287 288 287 288 288 288 288 289 290 290 289 288 288 289 288
277 276 276 276 277 278 279 281 280 280 281 282 282 281 282 283 285 285 286 286 286 286 287 287 286 287 289 290 291 291 290 290 291 291 289 289 288 287
275 275 276 277 275 272 273 276 279 280 281 281 281 281 282 283 284 285 286 286 286 285 284 285 286 287 288 289 291 291 292 292 291 290 289 289 289 288
Height
5831 5831 5831 5830 5829 5828 5827 5826 5827 5826 5825 5824 5823 5823 5822 5822 5821 5820 5819 5818 5817 5816 5815 5814 5813 5813 5813 5812 5812 5812 5812 5812 5812 5812 5812 5811 5811 5810
5828 5828 5827 5827 5826 5825 5824 5824 5823 5823 5822 5821 5820 5819 5818 5818 5817 5816 5815 5814 5813 5812 5811 5810 5810 5809 5809 5809 5808 5808 5807 5807 5807 5806 5806 5805 5805 5804
5825 5824 5824 5824 5823 5822 5821 5821 5820 5819 5819 5818 5817 5816 5815 5814 5813 5812 5811 5810 5809 5808 5807 5807 5806 5806 5805 5805 5804 5803 5803 5802 5801 5801 5800 5799 5799 5798
5821 5821 5820 5820 5819 5819 5818 5817 5817 5816 5815 5814 5813 5812 5811 5810 5809 5808 5807 5806 5805 5804 5803 5803 5802 5801 5801 5800 5799 5798 5797 5797 5796 5795 5794 5794 5793 5792
5816 5816 5816 5816 5815 5815 5814 5813 5813 5812 5811 5810 5809 5808 5807 5806 5805 5804 5803 5801 5801 5800 5799 5798 5798 5797 5796 5795 5794 5793 5792 5791 5791 5790 5789 5788 5787 5786
5812 5812 5812 5812 5811 5810 5810 5809 5808 5808 5807 5806 5805 5804 5803 5802 5801 5800 5799 5798 5797 5796 5795 5794 5793 5792 5791 5790 5789 5788 5787 5786 5785 5784 5783 5782 5781 5780
5808 5808 5808 5808 5807 5806 5805 5805 5804 5803 5802 5801 5800 5799 5799 5798 5797 5796 5795 5793 5792 5791 5791 5790 5789 5787 5786 5785 5784 5782 5781 5781 5780 5779 5778 5777 5776 5775
5805 5804 5804 5803 5803 5802 5801 5800 5799 5799 5798 5797 5796 5795 5794 5793 5792 5791 5790 5789 5788 5787 5786 5784 5783 5782 5781 5780 5779 5777 5776 5775 5774 5773 5772 5771 5770 5769
5801 5800 5800 5799 5799 5798 5797 5796 5795 5794 5794 5793 5792 5791 5790 5789 5787 5786 5785 5784 5782 5781 5780 5779 5778 5777 5776 5774 5773 5772 5771 5769 5769 5768 5766 5765 5764 5763
5796 5796 5795 5795 5794 5793 5792 5791 5790 5789 5789 5788 5787 5786 5785 5783 5782 5781 5780 5779 5778 5776 5775 5774 5773 5772 5770 5769 5768 5766 5765 5764 5762 5761 5760 5759 5757 5756
5792 5791 5790 5790 5789 5788 5787 5786 5785 5785 5784 5783 5782 5781 5779 5778 5777 5776 5775 5774 5773 5771 5770 5769 5768 5766 5765 5764 5762 5760 5759 5758 5756 5755 5754 5752 5751 5749
5787 5786 5785 5784 5784 5783 5782 5781 5780 5779 5778 5777 5776 5775 5774 5773 5772 5771 5770 5769 5767 5766 5765 5764 5762 5761 5760 5758 5756 5755 5753 5751 5750 5748 5747 5745 5744 5742
5782 5781 5780 5779 5778 5778 5777 5776 5775 5774 5773 5772 5771 5770 5768 5767 5766 5765 5764 5763 5762 5761 5760 5758 5757 5755 5754 5752 5750 5748 5747 5745 5743 5742 5740 5738 5737 5735
5777 5776 5775 5774 5773 5772 5771 5770 5769 5768 5767 5766 5765 5764 5763 5761 5760 5759 5758 5757 5755 5754 5753 5752 5750 5749 5748 5746 5744 5742 5740 5738 5736 5735 5733 5731 5729 5727
5771 5770 5769 5768 5767 5766 5765 5764 5763 5762 5761 5760 5759 5758 5757 5755 5754 5753 5752 5750 5749 5747 5746 5744 5743 5741 5740 5739 5737 5735 5733 5731 5729 5727 5725 5724 5722 5720
5765 5764 5763 5762 5761 5760 5759 5758 5757 5755 5754 5753 5752 5751 5750 5749 5748 5746 5745 5744 5742 5741 5739 5737 5735 5734 5732 5730 5728 5727 5725 5723 5721 5719 5717 5716 5714 5712
5758 5757 5756 5756 5755 5754 5752 5751 5750 5749 5748 5747 5746 5745 5743 5742 5741 5739 5738 5736 5735 5733 5731 5729 5727 5725 5724 5722 5720 5718 5717 5715 5713 5711 5709 5708 5706 5704
5752 5751 5750 5749 5748 5747 5745 5744 5743 5742 5741 5740 5739 5738 5737 5735 5734 5732 5730 5729 5727 5725 5723 5721 5719 5717 5716 5714 5712 5710 5709 5707 5705 5702 5700 5699 5698 5696
5745 5744 5743 5742 5741 5739 5738 5737 5736 5735 5734 5733 5732 5731 5729 5728 5726 5725 5723 5721 5719 5717 5715 5713 5711 5709 5707 5706 5704 5702 5700 5698 5696 5694 5692 5691 5689 5687
5738 5737 5736 5735 5733 5732 5731 5730 5729 5728 5727 5725 5724 5723 5722 5720 5719 5717 5715 5713 5711 5709 5707 5705 5703 5701 5699 5697 5696 5694 5691 5689 5687 5686 5684 5682 5680 5679
5730 5729 5728 5727 5726 5725 5724 5722 5721 5720 5719 5718 5717 5715 5714 5712 5711 5709 5707 5705 5703 5701 5699 5697 5695 5693 5690 5689 5687 5685 5683 5681 5679 5677 5675 5674 5672 5670
5722 5721 5720 5719 5718 5717 5716 5715 5714 5713 5712 5710 5709 5707 5706 5704 5703 5701 5699 5697 5695 5693 5691 5689 5687 5685 5683 5681 5679 5677 5676 5673 5671 5669 5667 5666 5664 5662
5713 5712 5711 5710 5710 5709 5708 5707 5706 5705 5704 5702 5701 5700 5698 5696 5695 5693 5691 5689 5687 5685 5683 5681 5679 5677 5675 5673 5671 5670 5668 5666 5664 5662 5660 5658 5656 5654